CZ-6A DEB, 56682

Orbit data source: Space-Track

CZ-6A DEB, 56682 is space debris in SSO originally from a launch on Fri, 11 Nov 2022 UTC launched from the Taiyaun Space Center, China (TSC). Debris objects in space refer to the collection of defunct objects orbiting the Earth. Examples of debris include non-operational satellites, rocket bodies, and fragments generated from explosions, collisions, or faulty payload assembly.

Loading next visibility...
Identifier
56682, 2022-151AHJ
Orbit
SSO
Country
Flag of CNCN / PRC
Related business
Manufacturer
SAST
Mission
Spacecraft
Bus & Motor
Unknown
Mass
Unknown
Launch date (UTC)
2022-11-11 (4 years ago)
Launch vehicle
Unknown
Launch site
Taiyaun Space Center, China (TSC)
Object type
Payload
Rocket body
Debris
Shape & HBR
Unknown shape, 0.1 m
Radar Cross Section
Medium (>0.1 m² and <1 m²)

Expand to show TLE details & history
Last TLE update: 2 days ago

TLE from 2 days ago
0 CZ-6A DEB
1 56682U 22151AHJ 26171.45363786  .00000609  00000-0  34911-3 0  9993
2 56682  98.8254 171.1126 0042659 311.3800  48.3707 14.12707344160588
Epoch: 2026-06-20T10:53Z
TLE epoch observation values (Epoch: 2026-06-20T10:53:14.311Z)
Latitude
-0.00002°
Longitude
99.13494°
Altitude
832.609 km
Speed
7.447 km/s
True Right ascension
11h 24m 27s
True Declination
0° 00' 00"
Sunlit
Object was in daylight at epoch
Visualization orbit readout
Latitude
Unknown
Longitude
Unknown
Altitude
Unknown
Speed
Unknown
Apparent Right ascension
Unknown
Apparent Declination
Unknown
Sunlit
N/A
Visualization observer readout
Local Sidereal Time
21:54:16
Azimuth
Unknown
Elevation
Unknown
Doppler factor
Unknown
Orbital elements
Apogee altitude
878.119 km
Perigee altitude
816.473 km
Semi-major axis
7,225.433 km
Eccentricity
0.00427
Inclination
98.8254°
RAAN
171.1126°
Arg. of periapsis
311.38°
True anomaly
48.73738°
Mean anomaly
48.3707°
Eccentric anomaly
48.55391°
Mean motion
3.53384 °/min
Orbital period
101.87 mins
BSTAR
0.00034911
Loading maneuver chart data...
Computing Atmospheric mass density...
Loading historical data...
Loading historical data...
Loading historical data...
Loading historical data...
Loading historical data...
Loading historical data...
Loading historical data...

Documentation

Showing up to 5 results
|